#timestamp,LO_Frequency,Hit,StdDev 
1590202815.5,286046999.3,N
1590202835.3,286046997.0,N
1590202855.1,286046998.3,N
1590202875.9,286047001.2,N
1590202895.7,286046998.9,N
1590202915.5,286046998.7,N
1590202935.4,286046999.2,N
1590202955.2,286046996.5,Y
1590202975.1,286047001.1,P
1590202976.0,286047001.1,N
1590202995.8,286046998.1,N
1590203015.6,286047001.1,N
1590203035.5,286047001.0,N
1590203055.3,286046998.6,N
1590203075.1,286046998.9,N
1590203095.9,286046998.5,N
1590203115.7,286046999.8,N
1590203135.6,286047002.5,N
1590203155.4,286047002.4,N
1590203175.2,286047002.8,N
1590203195.1,286047001.7,N
1590203196.0,286047001.7,N
1590203215.8,286047001.9,N
1590203235.6,286047002.6,N
1590203255.5,286047001.7,N
1590203275.3,286047004.3,N
1590203295.2,286047001.5,N
1590203315.9,286047001.4,N
1590203335.7,286047001.3,N
1590203355.6,286047003.7,N
1590203375.4,286047004.1,N
1590203395.2,286047002.6,N
1590203415.1,286047002.7,N
1590203416.0,286047002.7,N
1590203435.8,286047002.8,N
1590203455.6,286047001.1,N
1590203475.5,286047000.2,N
1590203495.3,286046998.3,N
1590203515.2,286046999.8,N
1590203535.9,286046999.7,N
1590203555.7,286047000.1,N
1590203575.6,286047000.1,N
1590203595.4,286047001.6,N
1590203615.2,286047001.8,N
1590203635.1,286047003.2,N
1590203636.0,286047003.2,N
1590203655.8,286047004.1,N
1590203675.7,286047001.6,N
1590203695.5,286047001.4,N
1590203715.3,286047001.8,N
1590203735.2,286047004.0,N
1590203755.0,286047001.7,N
1590203755.9,286047001.7,N
1590203775.7,286047003.1,N
1590203795.6,286047003.7,N
1590203815.4,286047003.8,N
1590203835.3,286047003.2,N
1590203855.1,286047001.5,N
1590203856.0,286047001.5,N
1590203875.8,286047001.6,N
1590203895.7,286047001.4,N
1590203915.5,286047001.4,N
1590203935.3,286047003.6,N
1590203955.2,286047003.7,N
1590203975.0,286047004.2,N
1590203975.9,286047004.2,N
1590203995.8,286047004.2,N
1590204015.6,286047003.2,N
1590204035.4,286047001.9,N
1590204055.3,286047001.9,N
1590204075.1,286047004.2,Y
1590204095.8,286047000.1,P
1590204115.7,286047000.0,N
1590204135.5,286047002.4,N
1590204155.4,286047000.4,N
1590204175.2,286047001.9,N
1590204195.0,286047001.7,N
1590204195.9,286047001.7,N
1590204215.8,286047004.0,Y
1590204235.6,286047001.8,P
1590204255.4,286047001.3,P
1590204275.3,286047002.4,P
1590204295.1,286046999.7,N
1590204315.9,286046999.7,N
1590204335.7,286046999.9,N
1590204355.5,286046998.3,N
1590204375.4,286046996.6,N
1590204395.2,286046998.7,N
1590204415.0,286046996.5,N
1590204415.9,286046996.5,N
1590204435.8,286046999.2,N
1590204455.6,286046998.6,N
1590204475.5,286047000.5,N
1590204495.3,286046998.5,N
1590204515.1,286046998.9,N
1590204535.9,286046999.3,N
1590204555.7,286046998.5,N
1590204575.5,286047001.0,N
1590204595.4,286047000.4,N
1590204615.2,286047002.6,N
1590204635.1,286046999.7,N
1590204636.0,286046999.7,N
1590204655.8,286047002.8,N
1590204675.6,286047000.2,N
1590204695.5,286047000.3,N
1590204715.3,286047002.3,N
1590204735.1,286047000.3,N
1590204755.9,286047000.8,N
1590204775.7,286046998.4,N
1590204795.6,286046998.4,N
1590204815.4,286046998.2,N
1590204835.2,286047001.1,N
1590204855.1,286047000.5,N
1590204856.0,286047000.5,N
1590204875.8,286047000.7,N
1590204895.6,286047001.1,N
1590204915.5,286046998.2,N
1590204935.3,286047000.5,N
1590204955.2,286047000.5,N
1590204975.9,286047000.0,N
1590204995.7,286046998.1,N
1590205015.6,286046998.4,N
1590205035.4,286047000.7,N
1590205055.2,286046999.0,N
1590205075.1,286047001.2,N
1590205076.0,286047001.2,N
1590205095.8,286047000.9,N
1590205115.7,286047000.7,N
1590205135.5,286046998.5,N
1590205155.3,286046998.7,N
1590205175.2,286046998.9,N
1590205195.0,286047001.0,N
1590205195.9,286047001.0,N
1590205215.7,286047002.6,N
1590205235.6,286047001.6,N
1590205255.4,286047000.1,N
1590205275.3,286046999.8,N
1590205295.1,286047001.1,N
1590205296.0,286047001.1,N
1590205315.8,286046998.2,N
1590205335.7,286046998.9,N
1590205355.5,286046998.7,N
1590205375.3,286046998.1,N
1590205395.2,286046999.7,N
1590205415.0,286047002.4,N
1590205415.9,286047002.4,N
1590205435.8,286046998.6,N
1590205455.6,286047001.2,N
1590205475.4,286046998.2,N
1590205495.3,286046998.6,N
1590205515.1,286047001.2,N
1590205535.8,286047000.9,N
1590205555.7,286046998.4,N
1590205575.5,286046996.6,N
1590205595.4,286046999.1,N
1590205615.2,286047000.2,N
1590205635.0,286047000.6,N
1590205635.9,286047000.6,N
1590205655.8,286047000.0,N
1590205675.6,286046999.8,N
1590205695.4,286046999.7,N
1590205715.3,286047000.3,N
1590205735.1,286047001.2,N
1590205755.9,286046998.1,N
1590205775.7,286046999.1,N
1590205795.5,286046997.9,N
1590205815.4,286046997.3,N
1590205835.2,286046996.8,N
1590205855.0,286046999.4,N
1590205855.9,286046999.4,N
1590205875.8,286046998.6,N
1590205895.6,286046998.4,N
1590205915.5,286046998.6,N
1590205935.3,286046998.4,N
1590205955.1,286046999.6,N
1590205975.9,286046996.7,N
1590205995.7,286046999.6,N
1590206015.5,286046999.6,N
1590206035.4,286046998.1,N
1590206055.2,286046998.7,N
1590206075.0,286046999.4,N
1590206076.0,286046999.4,N
1590206095.8,286046999.6,N
1590206115.6,286046998.2,N
1590206135.5,286046998.7,N
1590206155.3,286046998.7,N
1590206175.1,286046999.7,N
1590206195.9,286047000.3,N
1590206215.7,286047002.5,N
1590206235.5,286046999.8,N
1590206255.4,286047002.2,N
1590206275.2,286047003.8,N
1590206295.1,286047003.8,N
1590206296.0,286047003.8,N
1590206315.8,286047003.6,N
1590206335.6,286047003.7,N
1590206355.5,286047003.6,N
1590206375.3,286047004.4,N
1590206395.1,286047003.3,N
